Wetterdaten: Woche 01.01.07 - 07.01.07 (KW1)
Datum Zeit Temperatur Luftfeuchte Luftdruck Niederschlag Windrichtung Wind
01.01.2007 00:00 8,8 C 73 % 1027 hPa 0,0 l/m S 16,5 km/h (3 Bft)
01.01.2007 01:00 10,3 C 69 % 1026 hPa 0,0 l/m S-SW 17,4 km/h (3 Bft)
01.01.2007 02:00 9,2 C 77 % 1026 hPa 0,0 l/m S 15,4 km/h (3 Bft)
01.01.2007 03:00 8,4 C 91 % 1025 hPa 0,0 l/m S-SW 15,0 km/h (3 Bft)
01.01.2007 04:00 7,3 C 97 % 1024 hPa 0,0 l/m S 16,2 km/h (3 Bft)
01.01.2007 05:00 7,3 C 98 % 1023 hPa 1,0 l/m S 14,6 km/h (3 Bft)
01.01.2007 06:00 8,4 C 98 % 1023 hPa 1,0 l/m S 20,2 km/h (4 Bft)
01.01.2007 07:00 9,6 C 93 % 1022 hPa 0,0 l/m S 19,9 km/h (4 Bft)
01.01.2007 08:00 9,7 C 92 % 1022 hPa 0,0 l/m S-SO 19,0 km/h (3 Bft)
01.01.2007 09:00 9,5 C 91 % 1022 hPa 1,0 l/m S-SO 21,5 km/h (4 Bft)
01.01.2007 10:00 9,4 C 92 % 1022 hPa 0,0 l/m S-SO 19,6 km/h (3 Bft)
01.01.2007 11:00 9,2 C 91 % 1021 hPa 1,0 l/m S 20,1 km/h (4 Bft)
01.01.2007 12:00 9,0 C 95 % 1021 hPa 3,0 l/m W-SW 15,1 km/h (3 Bft)
01.01.2007 13:00 8,7 C 81 % 1021 hPa 0,0 l/m W-SW 17,5 km/h (3 Bft)
01.01.2007 14:00 7,7 C 68 % 1022 hPa 0,0 l/m SW 17,1 km/h (3 Bft)
01.01.2007 15:00 7,3 C 65 % 1023 hPa 0,0 l/m S 19,1 km/h (3 Bft)
01.01.2007 16:00 6,9 C 64 % 1024 hPa 0,0 l/m S-SO 19,7 km/h (3 Bft)
01.01.2007 17:00 6,5 C 67 % 1024 hPa 0,0 l/m S 21,3 km/h (4 Bft)
01.01.2007 18:00 5,9 C 65 % 1024 hPa 0,0 l/m S 20,4 km/h (4 Bft)
01.01.2007 19:00 5,1 C 68 % 1024 hPa 0,0 l/m S 10,5 km/h (2 Bft)
01.01.2007 20:00 3,8 C 74 % 1023 hPa 0,0 l/m S 4,6 km/h (1 Bft)
01.01.2007 21:00 3,1 C 78 % 1022 hPa 0,0 l/m S 3,0 km/h (1 Bft)
01.01.2007 22:00 2,4 C 85 % 1021 hPa 0,0 l/m O-SO 6,2 km/h (2 Bft)
01.01.2007 23:00 1,8 C 93 % 1020 hPa 0,0 l/m O 2,5 km/h (1 Bft)
02.01.2007 00:00 1,5 C 96 % 1019 hPa 0,0 l/m N 0,0 km/h (0 Bft)
02.01.2007 01:00 1,3 C 97 % 1018 hPa 0,0 l/m S 1,5 km/h (1 Bft)
02.01.2007 02:00 2,4 C 96 % 1018 hPa 0,0 l/m S 13,0 km/h (3 Bft)
02.01.2007 03:00 2,3 C 95 % 1018 hPa 1,0 l/m S-SW 18,0 km/h (3 Bft)
02.01.2007 04:00 2,5 C 98 % 1017 hPa 0,0 l/m S-SW 17,0 km/h (3 Bft)
02.01.2007 05:00 2,6 C 96 % 1017 hPa 0,0 l/m SW 16,4 km/h (3 Bft)
02.01.2007 06:00 2,4 C 95 % 1017 hPa 0,0 l/m SW 16,8 km/h (3 Bft)
02.01.2007 07:00 2,1 C 94 % 1018 hPa 0,0 l/m SW 17,3 km/h (3 Bft)
02.01.2007 08:00 2,0 C 95 % 1020 hPa 1,0 l/m W-SW 15,5 km/h (3 Bft)
02.01.2007 09:00 1,6 C 97 % 1022 hPa 0,0 l/m W-SW 14,9 km/h (3 Bft)
02.01.2007 10:00 1,8 C 90 % 1024 hPa 1,0 l/m W-SW 15,7 km/h (3 Bft)
02.01.2007 11:00 2,4 C 76 % 1024 hPa 0,0 l/m SW 16,4 km/h (3 Bft)
02.01.2007 12:00 2,8 C 76 % 1024 hPa 0,0 l/m SW 14,2 km/h (3 Bft)
02.01.2007 13:00 3,1 C 72 % 1024 hPa 0,0 l/m SW 14,1 km/h (3 Bft)
02.01.2007 14:00 3,2 C 70 % 1024 hPa 0,0 l/m SW 12,5 km/h (3 Bft)
02.01.2007 15:00 3,0 C 74 % 1024 hPa 0,0 l/m S-SW 14,1 km/h (3 Bft)
02.01.2007 16:00 2,5 C 80 % 1024 hPa 0,0 l/m S 14,5 km/h (3 Bft)
02.01.2007 17:00 2,0 C 86 % 1024 hPa 0,0 l/m S-SW 13,6 km/h (3 Bft)
02.01.2007 18:00 1,6 C 91 % 1025 hPa 0,0 l/m S-SW 11,8 km/h (2 Bft)
02.01.2007 19:00 1,6 C 89 % 1025 hPa 0,0 l/m S 11,4 km/h (2 Bft)
02.01.2007 20:00 1,7 C 92 % 1026 hPa 0,0 l/m SW 10,3 km/h (2 Bft)
02.01.2007 21:00 1,6 C 97 % 1026 hPa 0,0 l/m SW 8,2 km/h (2 Bft)
02.01.2007 22:00 1,5 C 97 % 1027 hPa 0,0 l/m SW 8,8 km/h (2 Bft)
02.01.2007 23:00 1,7 C 94 % 1028 hPa 0,0 l/m SW 8,7 km/h (2 Bft)
03.01.2007 00:00 1,6 C 94 % 1028 hPa 0,0 l/m SW 7,2 km/h (2 Bft)
03.01.2007 01:00 1,6 C 96 % 1028 hPa 0,0 l/m SW 7,8 km/h (2 Bft)
03.01.2007 02:00 1,6 C 95 % 1029 hPa 0,0 l/m S 8,3 km/h (2 Bft)
03.01.2007 03:00 1,6 C 98 % 1029 hPa 0,0 l/m SW 8,7 km/h (2 Bft)
03.01.2007 04:00 1,7 C 98 % 1029 hPa 1,0 l/m SW 10,1 km/h (2 Bft)
03.01.2007 05:00 1,7 C 98 % 1030 hPa 0,0 l/m SW 8,7 km/h (2 Bft)
03.01.2007 06:00 1,8 C 98 % 1030 hPa 0,0 l/m SW 6,8 km/h (2 Bft)
03.01.2007 07:00 1,8 C 98 % 1031 hPa 0,0 l/m S-SW 8,6 km/h (2 Bft)
03.01.2007 08:00 1,7 C 98 % 1032 hPa 0,0 l/m SW 7,9 km/h (2 Bft)
03.01.2007 09:00 2,1 C 98 % 1032 hPa 0,0 l/m W-SW 8,8 km/h (2 Bft)
03.01.2007 10:00 2,5 C 97 % 1033 hPa 0,0 l/m SW 9,0 km/h (2 Bft)
03.01.2007 11:00 3,1 C 92 % 1033 hPa 0,0 l/m SW 9,7 km/h (2 Bft)
03.01.2007 12:00 4,4 C 79 % 1033 hPa 0,0 l/m SW 12,1 km/h (2 Bft)
03.01.2007 13:00 4,8 C 75 % 1033 hPa 0,0 l/m W-SW 10,5 km/h (2 Bft)
03.01.2007 14:00 4,8 C 70 % 1032 hPa 0,0 l/m SW 10,9 km/h (2 Bft)
03.01.2007 15:00 4,3 C 74 % 1031 hPa 0,0 l/m S 11,2 km/h (2 Bft)
03.01.2007 16:00 3,6 C 75 % 1031 hPa 0,0 l/m S 9,5 km/h (2 Bft)
03.01.2007 17:00 3,2 C 79 % 1031 hPa 0,0 l/m S 10,2 km/h (2 Bft)
03.01.2007 18:00 2,9 C 85 % 1030 hPa 0,0 l/m S 7,9 km/h (2 Bft)
03.01.2007 19:00 2,9 C 81 % 1029 hPa 0,0 l/m S-SW 11,4 km/h (2 Bft)
03.01.2007 20:00 3,0 C 80 % 1029 hPa 0,0 l/m S 10,2 km/h (2 Bft)
03.01.2007 21:00 2,8 C 81 % 1028 hPa 0,0 l/m S 10,8 km/h (2 Bft)
03.01.2007 22:00 2,8 C 80 % 1028 hPa 0,0 l/m S 8,4 km/h (2 Bft)
03.01.2007 23:00 2,9 C 81 % 1027 hPa 0,0 l/m S 9,2 km/h (2 Bft)
04.01.2007 00:00 3,0 C 79 % 1026 hPa 0,0 l/m S 12,4 km/h (3 Bft)
04.01.2007 01:00 2,8 C 79 % 1025 hPa 0,0 l/m S 13,9 km/h (3 Bft)
04.01.2007 02:00 2,7 C 78 % 1024 hPa 0,0 l/m S 11,5 km/h (2 Bft)
04.01.2007 03:00 3,0 C 74 % 1023 hPa 0,0 l/m S 14,0 km/h (3 Bft)
04.01.2007 04:00 2,9 C 74 % 1022 hPa 0,0 l/m S 13,2 km/h (3 Bft)
04.01.2007 05:00 2,7 C 76 % 1021 hPa 0,0 l/m S 12,5 km/h (3 Bft)
04.01.2007 06:00 2,4 C 80 % 1020 hPa 0,0 l/m S 8,6 km/h (2 Bft)
04.01.2007 07:00 2,5 C 74 % 1019 hPa 0,0 l/m S 12,0 km/h (2 Bft)
04.01.2007 08:00 3,7 C 63 % 1019 hPa 0,0 l/m S 11,9 km/h (2 Bft)
04.01.2007 09:00 3,1 C 73 % 1019 hPa 0,0 l/m S 13,8 km/h (3 Bft)
04.01.2007 10:00 3,4 C 75 % 1018 hPa 0,0 l/m S 11,2 km/h (2 Bft)
04.01.2007 11:00 4,5 C 68 % 1018 hPa 0,0 l/m S 12,9 km/h (3 Bft)
04.01.2007 12:00 5,8 C 56 % 1018 hPa 0,0 l/m SW 14,0 km/h (3 Bft)
04.01.2007 13:00 6,3 C 67 % 1017 hPa 0,0 l/m SW 18,6 km/h (3 Bft)
04.01.2007 14:00 6,5 C 69 % 1017 hPa 0,0 l/m S-SW 19,6 km/h (3 Bft)
04.01.2007 15:00 6,1 C 78 % 1017 hPa 0,0 l/m S 22,0 km/h (4 Bft)
04.01.2007 16:00 5,9 C 83 % 1017 hPa 0,0 l/m S 17,5 km/h (3 Bft)
04.01.2007 17:00 5,6 C 84 % 1018 hPa 0,0 l/m S 15,9 km/h (3 Bft)
04.01.2007 18:00 5,5 C 85 % 1018 hPa 0,0 l/m S 14,9 km/h (3 Bft)
04.01.2007 19:00 5,1 C 85 % 1018 hPa 0,0 l/m S 13,7 km/h (3 Bft)
04.01.2007 20:00 5,3 C 85 % 1019 hPa 0,0 l/m S-SW 10,6 km/h (2 Bft)
04.01.2007 21:00 5,2 C 86 % 1019 hPa 0,0 l/m S-SO 11,2 km/h (2 Bft)
04.01.2007 22:00 4,9 C 88 % 1020 hPa 0,0 l/m S 12,5 km/h (3 Bft)
04.01.2007 23:00 4,5 C 87 % 1020 hPa 0,0 l/m S 11,3 km/h (2 Bft)
05.01.2007 00:00 4,2 C 88 % 1020 hPa 0,0 l/m S 10,7 km/h (2 Bft)
05.01.2007 01:00 4,6 C 90 % 1021 hPa 0,0 l/m S-SW 13,1 km/h (3 Bft)
05.01.2007 02:00 4,5 C 89 % 1022 hPa 0,0 l/m S 14,1 km/h (3 Bft)
05.01.2007 03:00 4,5 C 87 % 1022 hPa 0,0 l/m S 12,9 km/h (3 Bft)
05.01.2007 04:00 4,6 C 82 % 1023 hPa 0,0 l/m S 15,1 km/h (3 Bft)
05.01.2007 05:00 4,6 C 82 % 1023 hPa 0,0 l/m S 11,6 km/h (2 Bft)
05.01.2007 06:00 4,6 C 83 % 1023 hPa 0,0 l/m S 13,7 km/h (3 Bft)
05.01.2007 07:00 4,6 C 80 % 1024 hPa 0,0 l/m S 11,9 km/h (2 Bft)
05.01.2007 08:00 4,5 C 79 % 1024 hPa 0,0 l/m S 12,7 km/h (3 Bft)
05.01.2007 09:00 4,8 C 78 % 1025 hPa 0,0 l/m S 14,8 km/h (3 Bft)
05.01.2007 10:00 5,4 C 75 % 1025 hPa 0,0 l/m S-SW 15,2 km/h (3 Bft)
05.01.2007 11:00 5,9 C 72 % 1026 hPa 0,0 l/m S 15,0 km/h (3 Bft)
05.01.2007 12:00 6,0 C 70 % 1025 hPa 0,0 l/m S-SO 12,1 km/h (2 Bft)
05.01.2007 13:00 5,8 C 70 % 1025 hPa 0,0 l/m S-SO 13,7 km/h (3 Bft)
05.01.2007 14:00 5,8 C 71 % 1026 hPa 0,0 l/m S 14,1 km/h (3 Bft)
05.01.2007 15:00 5,6 C 72 % 1026 hPa 0,0 l/m S 14,9 km/h (3 Bft)
05.01.2007 16:00 5,4 C 74 % 1026 hPa 0,0 l/m S-SO 14,6 km/h (3 Bft)
05.01.2007 17:00 5,2 C 71 % 1026 hPa 0,0 l/m S 13,1 km/h (3 Bft)
05.01.2007 18:00 5,3 C 69 % 1026 hPa 0,0 l/m S-SW 11,9 km/h (2 Bft)
05.01.2007 19:00 5,5 C 71 % 1026 hPa 0,0 l/m SW 10,8 km/h (2 Bft)
05.01.2007 20:00 5,6 C 75 % 1027 hPa 0,0 l/m W-SW 13,0 km/h (3 Bft)
05.01.2007 21:00 5,6 C 77 % 1026 hPa 0,0 l/m SW 13,4 km/h (3 Bft)
05.01.2007 22:00 5,3 C 78 % 1027 hPa 0,0 l/m W-SW 11,8 km/h (2 Bft)
05.01.2007 23:00 5,4 C 76 % 1027 hPa 0,0 l/m SW 13,9 km/h (3 Bft)
06.01.2007 00:00 5,5 C 76 % 1026 hPa 0,0 l/m SW 14,2 km/h (3 Bft)
06.01.2007 01:00 5,7 C 72 % 1026 hPa 0,0 l/m W-SW 15,3 km/h (3 Bft)
06.01.2007 02:00 5,3 C 75 % 1026 hPa 0,0 l/m S-SW 13,2 km/h (3 Bft)
06.01.2007 03:00 4,7 C 85 % 1026 hPa 1,0 l/m S-SW 13,4 km/h (3 Bft)
06.01.2007 04:00 4,3 C 91 % 1026 hPa 0,0 l/m S-SW 12,6 km/h (3 Bft)
06.01.2007 05:00 4,3 C 94 % 1026 hPa 0,0 l/m S-SW 12,4 km/h (3 Bft)
06.01.2007 06:00 4,1 C 97 % 1026 hPa 1,0 l/m S-SW 12,2 km/h (2 Bft)
06.01.2007 07:00 4,3 C 94 % 1026 hPa 0,0 l/m S-SW 12,5 km/h (3 Bft)
06.01.2007 08:00 4,1 C 96 % 1026 hPa 0,0 l/m S-SW 13,5 km/h (3 Bft)
06.01.2007 09:00 4,3 C 95 % 1026 hPa 0,0 l/m S-SW 10,8 km/h (2 Bft)
06.01.2007 10:00 4,7 C 91 % 1026 hPa 0,0 l/m S-SW 12,1 km/h (2 Bft)
06.01.2007 11:00 5,3 C 87 % 1026 hPa 0,0 l/m S-SW 11,4 km/h (2 Bft)
06.01.2007 12:00 6,1 C 83 % 1025 hPa 0,0 l/m S-SW 13,5 km/h (3 Bft)
06.01.2007 13:00 7,1 C 77 % 1025 hPa 0,0 l/m S-SW 12,0 km/h (2 Bft)
06.01.2007 14:00 8,0 C 73 % 1024 hPa 0,0 l/m S-SW 13,1 km/h (3 Bft)
06.01.2007 15:00 8,1 C 73 % 1024 hPa 0,0 l/m SW 16,1 km/h (3 Bft)
06.01.2007 16:00 7,9 C 74 % 1024 hPa 0,0 l/m SW 12,1 km/h (2 Bft)
06.01.2007 17:00 7,2 C 75 % 1023 hPa 0,0 l/m S-SW 8,6 km/h (2 Bft)
06.01.2007 18:00 6,3 C 79 % 1023 hPa 0,0 l/m S-SW 6,7 km/h (2 Bft)
06.01.2007 19:00 5,9 C 82 % 1023 hPa 0,0 l/m S-SW 7,4 km/h (2 Bft)
06.01.2007 20:00 5,8 C 85 % 1023 hPa 0,0 l/m S-SW 10,2 km/h (2 Bft)
06.01.2007 21:00 6,4 C 80 % 1022 hPa 0,0 l/m S-SW 14,1 km/h (3 Bft)
06.01.2007 22:00 7,0 C 76 % 1022 hPa 0,0 l/m SW 14,3 km/h (3 Bft)
06.01.2007 23:00 7,2 C 75 % 1022 hPa 0,0 l/m SW 13,2 km/h (3 Bft)
07.01.2007 00:00 7,8 C 73 % 1021 hPa 0,0 l/m SW 13,7 km/h (3 Bft)
07.01.2007 01:00 8,4 C 73 % 1021 hPa 0,0 l/m W-SW 15,9 km/h (3 Bft)
07.01.2007 02:00 7,7 C 87 % 1021 hPa 0,0 l/m SW 14,6 km/h (3 Bft)
07.01.2007 03:00 7,8 C 90 % 1021 hPa 0,0 l/m SW 16,8 km/h (3 Bft)
07.01.2007 04:00 7,7 C 96 % 1021 hPa 0,0 l/m S-SW 15,6 km/h (3 Bft)
07.01.2007 05:00 7,4 C 98 % 1022 hPa 0,0 l/m SW 13,8 km/h (3 Bft)
07.01.2007 06:00 7,5 C 98 % 1022 hPa 0,0 l/m SW 12,7 km/h (3 Bft)
07.01.2007 07:00 7,3 C 97 % 1023 hPa 0,0 l/m W-SW 7,5 km/h (2 Bft)
07.01.2007 08:00 6,4 C 98 % 1023 hPa 0,0 l/m W-SW 5,5 km/h (1 Bft)
07.01.2007 09:00 6,0 C 98 % 1024 hPa 0,0 l/m S-SW 3,9 km/h (1 Bft)
07.01.2007 10:00 7,1 C 96 % 1024 hPa 0,0 l/m W 4,6 km/h (1 Bft)
07.01.2007 11:00 7,8 C 82 % 1024 hPa 0,0 l/m W 6,1 km/h (2 Bft)
07.01.2007 12:00 7,9 C 79 % 1024 hPa 0,0 l/m W-SW 7,5 km/h (2 Bft)
07.01.2007 13:00 7,9 C 77 % 1023 hPa 0,0 l/m W 5,8 km/h (2 Bft)
07.01.2007 14:00 7,6 C 83 % 1023 hPa 0,0 l/m S-SW 2,2 km/h (1 Bft)
07.01.2007 15:00 7,4 C 90 % 1023 hPa 0,0 l/m S-SW 5,4 km/h (1 Bft)
07.01.2007 16:00 6,9 C 97 % 1022 hPa 0,0 l/m S 11,7 km/h (2 Bft)
07.01.2007 17:00 5,5 C 97 % 1022 hPa 0,0 l/m S-SW 9,2 km/h (2 Bft)
07.01.2007 18:00 4,9 C 97 % 1022 hPa 0,0 l/m S-SW 8,8 km/h (2 Bft)
07.01.2007 19:00 4,4 C 94 % 1022 hPa 0,0 l/m S-SW 4,2 km/h (1 Bft)
07.01.2007 20:00 3,1 C 95 % 1021 hPa 0,0 l/m N 0,0 km/h (0 Bft)
07.01.2007 21:00 2,8 C 98 % 1021 hPa 0,0 l/m S-SW 1,5 km/h (1 Bft)
07.01.2007 22:00 4,7 C 97 % 1020 hPa 0,0 l/m S-SW 9,0 km/h (2 Bft)
07.01.2007 23:00 4,1 C 97 % 1020 hPa 0,0 l/m S-SW 5,2 km/h (1 Bft)
Min-Datum _ 02.01.07 04.01.07 02.01.07 - - 01.01.07
_ Min-Zeit 01:20 12:28 01:05 - - 00:31
Minimum _ 1,3 C 51 % 1017 hPa - - 0,0 km/h (0 Bft)
Max-Datum _ 01.01.07 01.01.07 03.01.07 01.01.07 - 01.01.07
_ Max-Zeit 01:08 04:19 10:20 12:17 - 17:16
Maximum _ 10,6 C 98 % 1033 hPa 3,0 l/m - 42,0 km/h
S (6 Bft)
Durchschnitt _ 4,8 C 84 % 1024 hPa #13,0 l/m S-SW 12,2 km/h (2 Bft)

Durchschnitt Minimum Temp.4,6 C
Durchschnitt Maximum Temp.5,1 C